Location: Del Amo
(33.8464°N, 118.2104°W)
Time: 06:58:52
(UTC+00:00)

Vanguard 3 - Pass Details

Date: 21 September 2024
Orbit: 507 x 3223 km, 33.3° (Epoch: 12 October)

Event Time Altitude Azimuth Distance (km) Brightness Sun altitude
Exits shadow 12:49:59 - 240° (WSW) 5,114 10.6 -11.3°
Reaches altitude 10° 12:50:20 10° 240° (WSW) 5,039 10.6 -11.3°
Maximum altitude 13:06:29 74° 159° (SSE) 3,186 10.2 -7.9°
Drops below altitude 10° 13:26:12 10° 79° (E) 5,982 13.5 -3.8°
Sets 13:30:30 0° 78° (ENE) 6,829 14.2 -3.0°
